Lapse_Rate
8.8 8.0 6.3 6.1 5.8 5.8 5.6 6.0 5.9 5.7 5.8 6.1 6.0 5.7 5.4 5.6 5.7 5.3 5.3 6.1 6.9 7.1 6.9 6.8 6.9 7.1 6.7 6.7 6.5 6.2 6.5 6.1 5.8 5.8 6.2 6.3 6.5 6.6 6.3 6.6 7.8 7.6 5.8
9.4 8.2 6.3 6.3 5.9 5.8 5.7 5.7 5.8 5.6 5.7 5.8 6.1 6.0 5.5 5.7 5.7 5.5 5.4 5.8 7.1 7.4 7.6 7.1 7.0 7.2 6.4 6.2 6.1 5.7 5.6 5.4 5.4 5.4 6.0 6.4 6.2 6.4 6.5 6.4 6.6 6.0 5.5
9.3 8.3 7.7 6.1 5.9 5.6 5.5 5.4 5.7 5.7 5.8 5.8 6.2 6.3 6.0 5.8 5.8 5.7 5.8 6.3 7.1 7.0 7.3 7.5 7.4 7.6 6.5 5.7 5.5 5.3 5.3 5.2 5.1 5.6 6.7 9.4 7.9 6.6 6.4 6.0 5.6 5.7 5.7
9.1 8.2 9.4 5.9 5.7 5.7 5.7 5.6 5.5 5.5 5.8 5.7 6.1 5.7 6.0 6.2 6.1 6.1 6.3 7.3 7.7 7.5 7.5 7.7 7.5 7.5 5.3 5.2 5.0 5.1 4.8 4.6 4.7 6.0 9.4 9.6 9.4 6.2 5.8 5.6 5.5 5.6 5.6
9.2 7.9 8.9 6.0 5.7 5.7 5.6 5.7 5.6 5.7 5.6 5.8 5.8 5.5 5.8 6.3 6.6 6.6 6.7 7.0 7.0 6.7 6.7 6.8 6.6 5.5 5.0 5.0 5.0 4.8 4.6 4.2 4.7 7.6 9.3 9.4 9.5 5.6 5.6 5.9 5.9 5.8 5.9
8.6 9.1 6.7 5.6 5.7 5.7 5.4 5.5 5.6 5.7 5.7 5.8 6.2 5.8 6.0 6.2 6.6 6.9 6.3 6.2 6.5 5.9 5.7 5.5 5.2 5.1 5.0 5.0 5.2 4.9 4.3 3.8 4.7 8.5 9.3 6.7 9.1 5.6 5.7 5.6 5.6 5.7 5.8
8.0 8.8 8.4 5.5 5.8 5.8 5.6 5.7 5.8 5.9 5.8 5.7 6.1 6.2 6.4 6.5 6.5 6.4 6.2 5.8 5.7 5.6 5.5 4.8 5.0 5.1 5.0 5.2 5.3 4.8 4.2 3.8 7.7 7.7 8.0 8.5 7.2 5.7 5.8 5.7 5.7 5.7 5.7
7.4 8.0 9.1 5.9 5.8 5.7 5.6 5.6 5.6 5.7 5.8 5.6 5.8 6.0 6.0 6.3 6.4 6.1 5.9 5.8 5.8 5.3 4.9 4.8 5.1 5.2 5.2 5.3 5.2 4.5 3.6 4.2 7.2 8.2 7.9 9.0 5.7 6.0 6.0 5.9 5.8 5.8 5.9
4.7 7.0 8.3 8.6 6.6 5.4 5.4 5.5 5.7 5.7 5.7 5.7 5.8 5.9 6.0 6.4 6.4 5.8 6.0 5.7 5.5 5.0 4.6 4.7 5.0 5.1 5.3 5.4 5.0 4.1 3.5 4.3 9.1 8.9 8.3 9.0 5.5 6.1 6.1 6.0 6.0 6.0 5.9
6.0 5.1 5.7 8.2 7.8 7.7 7.6 5.0 5.0 5.3 6.0 5.5 5.8 6.0 6.0 6.2 6.3 6.3 6.1 5.9 5.7 4.8 4.8 4.5 4.9 5.1 5.1 5.3 4.8 4.1 3.6 4.2 8.7 7.3 8.2 8.7 5.3 6.4 6.3 6.2 6.2 6.2 6.2
6.6 6.5 5.3 5.4 6.5 8.2 8.6 8.3 5.2 5.2 5.3 6.0 5.4 5.7 6.2 8.0 7.9 6.8 7.1 5.6 5.4 4.8 4.4 4.3 4.5 4.9 4.9 4.6 4.6 4.4 4.0 8.9 8.9 9.0 8.7 5.2 4.9 6.4 6.5 6.4 6.4 6.3 6.2
6.9 6.6 6.5 5.7 4.7 5.2 7.1 7.4 7.6 7.6 7.2 7.6 8.0 8.9 8.0 9.4 9.4 8.8 6.9 5.3 5.4 5.2 4.4 4.6 4.7 4.5 4.6 8.7 6.7 4.4 6.9 9.3 9.3 9.2 9.2 5.3 5.0 6.3 6.8 6.6 6.5 6.5 6.4
5.9 6.2 6.5 6.1 5.0 4.1 5.3 6.6 8.0 6.5 7.0 8.1 9.5 9.4 9.3 9.3 8.8 7.7 7.0 6.5 7.0 5.5 6.5 5.3 5.4 6.2 7.5 9.4 9.5 9.4 9.5 9.5 9.5 9.2 8.1 5.3 4.9 6.0 6.9 7.1 6.8 6.7 6.7
5.3 5.7 6.5 6.4 6.0 5.1 5.5 6.6 8.5 7.5 7.4 8.2 8.0 9.2 9.2 9.2 8.7 8.3 7.4 7.5 7.6 6.8 7.4 9.1 9.5 9.4 9.1 7.3 8.2 8.7 9.2 8.8 9.5 9.3 8.9 5.5 4.6 5.7 6.7 7.2 7.1 6.8 6.7
4.7 4.8 5.8 6.3 6.0 6.2 6.0 6.9 7.5 7.1 6.1 7.1 8.4 9.1 8.8 9.3 9.4 9.0 7.1 6.9 7.7 7.7 7.5 8.5 9.6 9.6 7.5 6.9 7.2 7.5 8.9 9.2 9.4 9.5 9.1 6.3 5.2 4.8 5.9 6.7 6.8 7.1 6.9
6.4 5.2 5.3 6.1 6.4 6.0 5.8 6.6 8.0 7.8 6.8 6.3 7.2 7.9 8.8 8.6 8.1 7.9 8.6 8.4 8.6 7.3 7.8 7.7 7.7 9.4 7.3 7.7 8.0 8.2 8.1 8.9 8.8 8.7 8.9 8.9 6.1 5.1 5.0 6.0 6.6 7.0 7.3
8.5 6.8 5.8 5.9 6.4 6.1 5.8 6.0 7.2 7.5 6.9 6.7 6.4 6.9 6.8 7.3 7.5 8.8 8.2 8.6 8.7 8.6 7.5 7.1 8.0 7.1 8.3 9.0 7.6 8.5 8.3 8.3 8.9 9.2 9.1 9.2 9.1 6.0 5.7 5.6 6.3 6.8 7.0
7.4 7.2 6.7 6.5 6.4 6.4 6.0 5.4 6.4 7.0 8.1 7.8 7.0 6.9 7.2 7.1 6.9 6.8 6.2 8.2 7.9 7.7 7.6 7.3 6.8 7.6 6.0 6.7 9.0 8.8 8.1 8.8 9.0 9.4 9.2 9.4 9.2 8.4 7.6 6.1 5.4 6.1 6.6
7.8 7.5 7.1 6.8 6.9 6.7 6.7 5.7 5.8 5.9 7.0 8.1 7.4 6.6 6.7 7.3 7.2 6.9 6.9 6.9 8.4 7.1 7.2 7.1 6.6 5.5 6.4 5.7 5.1 8.7 7.9 8.0 8.6 9.3 9.4 9.5 8.7 7.9 8.2 7.7 5.8 4.5 5.3
7.9 7.8 7.8 7.6 7.6 7.9 7.4 6.9 5.7 5.3 6.1 7.2 7.9 7.5 7.0 6.5 7.1 7.1 7.3 7.4 6.9 6.6 6.7 6.6 7.2 6.5 6.8 7.3 6.3 6.4 7.9 7.4 8.0 8.6 9.6 9.0 9.1 8.0 7.7 7.5 7.3 6.3 4.5
6.9 6.9 7.6 7.4 7.9 7.9 8.7 8.1 6.0 5.7 6.3 6.7 6.7 6.6 6.8 6.9 6.7 6.6 6.9 6.8 6.6 6.4 6.5 6.7 6.3 7.0 4.9 6.9 7.2 6.1 6.2 7.9 7.4 8.0 9.0 9.0 8.9 8.0 7.8 7.3 7.0 7.1 6.6
6.6 7.1 7.4 7.4 7.7 8.0 8.6 8.3 8.5 7.5 7.8 7.7 6.7 5.7 5.5 6.1 6.5 6.4 6.1 6.2 7.1 6.3 6.5 6.3 6.3 5.6 5.0 5.5 4.9 5.8 6.5 8.6 9.0 8.1 9.0 8.7 7.9 7.8 7.2 6.6 6.6 6.2 5.7
6.7 6.8 7.1 7.4 7.3 8.1 8.9 8.2 8.2 8.4 7.5 6.8 6.2 5.7 5.5 5.3 5.7 6.0 5.9 6.4 7.0 5.9 5.6 5.5 5.9 5.4 5.5 5.0 5.4 7.2 6.7 7.5 6.8 6.0 5.9 6.2 5.8 6.6 6.1 5.3 5.0 4.5 4.6
6.9 6.7 6.7 7.2 7.5 7.9 8.3 9.1 7.5 7.7 7.9 7.5 7.1 6.4 4.5 5.3 6.0 6.0 5.8 6.2 6.1 5.8 5.7 5.1 5.6 6.0 5.9 6.1 5.0 6.1 6.2 5.5 6.7 6.9 5.2 5.2 4.9 4.9 4.1 3.4 3.7 4.0 4.0
6.8 6.4 6.0 6.5 7.6 8.0 7.9 8.6 8.3 6.7 7.1 8.9 8.3 6.4 7.1 6.2 6.1 6.3 5.8 6.1 5.7 5.6 5.3 5.9 5.6 5.0 5.3 6.1 7.1 7.0 5.7 5.5 5.5 6.3 6.0 7.1 5.1 4.8 5.1 5.7 6.1 5.2 5.4
6.7 6.3 6.2 6.6 7.1 7.7 7.6 8.5 8.5 6.6 6.1 6.8 5.2 5.9 6.3 5.6 5.7 6.2 6.3 7.0 6.6 5.3 5.0 5.3 5.3 5.6 5.7 6.2 6.0 6.0 5.9 5.2 5.5 5.0 5.5 6.8 6.4 6.4 5.1 4.8 4.8 5.8 5.2
Wind_Speed
3 12 16 16 15 14 12 12 16 17 16 15 16 15 14 13 13 14 13 11 9 9 13 13 14 14 14 14 14 14 13 13 14 12 13 14 14 14 12 8 13 14 14
2 13 15 17 15 15 13 13 15 16 16 15 15 15 14 13 13 14 14 13 11 9 10 14 13 14 13 13 13 13 13 13 14 13 15 15 15 15 14 15 16 13 13
5 12 18 18 16 16 15 15 14 15 14 14 13 14 13 13 14 15 13 14 13 11 11 12 13 14 14 13 12 12 12 12 11 8 4 12 14 13 13 13 13 12 12
5 11 16 17 17 17 16 14 14 14 13 13 13 12 12 13 15 15 15 16 15 14 11 12 12 11 12 10 11 10 11 10 8 6 6 9 10 9 10 11 11 11 11
7 10 11 14 16 16 15 16 15 14 13 11 13 14 13 14 15 15 15 13 15 15 13 13 11 10 9 9 9 9 9 8 7 4 7 6 7 9 9 9 10 11 11
6 11 12 12 14 15 15 15 15 16 15 13 12 14 15 14 14 15 12 16 16 15 14 12 11 8 7 8 9 8 7 7 6 5 5 5 7 8 8 9 9 9 10
5 9 12 10 11 13 14 14 13 13 14 15 13 11 14 14 12 14 14 15 16 15 14 13 10 8 6 8 10 7 6 5 4 4 4 4 8 7 7 7 8 8 8
3 7 10 12 11 11 13 14 14 13 12 11 12 12 13 13 11 15 17 16 16 15 13 12 10 7 6 7 9 7 6 5 4 5 4 4 7 6 6 6 6 6 6
7 4 8 10 12 10 9 10 12 13 13 12 11 11 12 11 10 15 19 18 17 15 14 12 10 8 6 7 7 7 7 5 3 4 3 4 4 5 5 5 4 5 5
4 3 3 8 9 11 12 11 12 12 14 14 13 12 11 11 12 16 18 17 16 15 14 13 11 9 6 5 8 7 6 5 4 4 3 3 1 3 3 3 3 3 3
6 4 3 3 6 11 11 11 13 15 15 13 13 14 12 13 14 15 17 18 15 14 12 12 11 10 6 5 6 7 7 6 5 4 3 5 3 4 4 4 4 3 3
8 7 5 3 6 8 11 11 13 12 12 14 14 14 15 14 14 14 15 17 15 14 12 11 10 9 9 9 9 8 11 6 6 5 4 5 6 7 6 7 7 7 6
11 9 7 6 7 8 8 10 11 10 11 12 14 15 14 12 13 13 12 15 13 13 12 13 12 13 13 9 7 8 7 7 6 6 6 7 8 9 9 9 10 10 9
13 12 10 8 8 9 10 9 10 8 11 10 13 16 14 11 11 12 12 14 15 13 11 12 12 13 12 11 10 9 9 8 8 7 7 9 11 11 11 13 14 13 12
14 14 11 9 9 8 9 8 8 7 9 11 13 15 16 12 9 12 12 12 13 14 13 11 11 10 9 11 11 10 10 10 10 9 9 8 13 13 13 14 13 11 10
14 15 12 11 10 10 10 10 8 10 10 9 11 12 15 13 10 10 9 11 14 15 14 13 10 8 8 10 9 11 10 10 11 11 11 10 11 14 14 15 15 13 11
13 14 14 12 11 11 12 11 9 10 10 8 9 13 13 11 11 12 9 9 13 17 14 13 12 10 8 7 8 9 10 12 11 12 13 13 11 13 17 16 16 16 15
15 15 14 12 12 12 12 11 8 11 11 9 9 8 11 11 13 11 5 8 12 12 13 10 8 9 7 7 8 7 7 10 12 13 13 13 12 12 12 17 18 18 17
16 17 16 14 14 13 12 9 10 12 9 10 11 10 9 11 12 12 9 9 14 8 9 10 8 7 9 7 7 8 7 8 9 13 13 14 14 14 13 12 16 18 19
16 15 15 13 14 14 9 9 6 7 9 13 10 12 13 11 13 13 10 10 14 8 9 8 13 10 8 9 7 6 8 7 8 10 11 13 15 15 15 14 12 13 19
15 15 15 15 15 11 10 9 8 9 10 10 10 15 15 14 14 13 9 11 11 9 11 12 10 14 6 8 7 5 5 10 11 10 9 9 11 14 15 13 12 12 11
13 13 14 15 14 13 10 9 9 10 11 10 9 11 16 15 15 12 11 11 13 8 11 12 12 8 6 8 4 0 2 8 8 8 10 10 12 12 11 14 15 12 10
12 13 14 15 15 14 14 10 8 6 7 8 10 9 11 14 15 15 14 12 12 8 8 10 12 13 8 8 9 4 3 7 2 2 3 5 8 7 6 9 10 9 11
13 13 14 15 15 14 14 12 14 11 11 9 9 8 8 13 12 14 14 11 9 7 9 9 10 10 9 11 5 10 7 2 2 2 2 2 5 8 7 3 8 11 14
12 10 11 13 15 14 14 15 12 12 8 8 6 9 10 9 10 11 12 9 9 7 8 10 9 9 7 7 8 5 5 2 2 4 5 8 4 5 4 7 8 10 16
10 9 9 12 13 14 14 16 15 13 11 10 7 7 7 7 7 11 12 12 11 9 9 8 9 10 10 8 5 4 3 3 5 4 7 11 9 6 5 6 7 5 10
Wind_Direction
195 165 156 157 156 152 140 142 144 143 150 156 154 151 148 150 146 144 142 147 148 130 122 131 137 118 111 106 98 95 91 87 88 84 81 82 106 96 89 75 95 77 69
254 167 158 158 160 155 149 146 145 145 152 154 154 155 157 157 157 155 152 152 148 145 127 123 121 119 113 105 108 105 99 90 88 92 101 93 88 92 80 64 58 74 73
206 175 172 162 165 160 154 151 156 158 159 156 165 154 166 164 163 161 162 162 153 154 146 125 125 124 114 115 114 109 102 98 95 101 177 104 96 88 83 75 75 75 73
190 178 182 168 171 169 161 157 157 160 163 163 159 156 171 171 167 170 170 171 161 146 147 128 129 129 112 125 123 117 112 108 107 157 116 108 102 85 86 87 84 83 85
193 182 178 163 175 172 167 167 168 168 166 172 168 169 178 181 182 176 179 175 159 147 140 130 142 133 138 139 137 132 125 118 126 148 109 98 98 94 87 87 91 81 68
193 191 150 171 178 176 171 175 175 176 173 184 188 180 182 192 196 181 174 154 149 145 137 147 137 150 163 168 151 140 140 140 186 123 109 104 93 100 96 91 87 83 78
196 194 176 173 179 185 183 184 186 188 184 184 201 193 188 199 201 186 170 148 144 145 150 145 152 164 158 166 168 146 141 161 179 134 124 117 103 114 106 100 91 87 87
230 206 192 186 190 185 191 193 193 197 202 197 205 201 201 201 204 189 172 149 150 151 157 157 165 173 172 156 156 150 148 170 185 139 128 127 111 121 112 104 100 95 90
2 265 212 201 197 194 195 198 203 207 207 208 213 211 210 206 197 179 165 155 158 163 166 172 178 183 186 182 163 154 159 194 197 135 155 152 147 142 128 122 113 109 106
26 5 342 226 213 210 208 209 206 213 213 207 219 219 210 204 196 187 169 164 165 170 179 179 188 192 188 195 171 169 169 193 189 172 187 118 184 175 159 156 146 135 125
7 357 332 257 262 214 225 208 211 220 222 211 213 216 209 211 194 183 194 170 175 178 182 184 191 191 189 189 198 189 191 214 196 201 202 143 243 223 209 211 209 202 198
321 336 314 260 253 251 213 223 221 217 216 218 214 211 218 218 206 198 192 177 182 183 186 189 192 189 199 208 195 205 233 224 221 223 227 180 231 244 233 233 235 236 236
295 294 294 272 230 231 230 224 220 205 208 217 218 212 215 218 214 200 189 186 191 192 199 196 194 209 213 226 227 227 241 245 238 234 224 213 232 243 246 244 246 249 250
280 276 279 276 242 225 227 225 219 211 210 217 212 214 208 205 213 211 197 193 195 184 213 206 209 213 218 224 232 236 238 243 250 250 244 224 234 243 251 253 250 246 250
267 266 259 260 255 242 228 223 216 215 211 212 219 214 217 210 206 204 204 198 197 195 200 209 215 215 221 230 233 239 246 247 251 259 261 220 237 240 248 262 273 272 249
261 262 260 250 246 238 232 232 223 211 208 209 213 220 217 223 216 208 213 203 204 203 199 207 209 214 220 226 238 241 247 251 255 257 261 262 242 241 242 252 263 273 264
263 262 262 255 245 234 233 232 225 215 204 198 207 205 207 218 229 210 220 224 216 210 202 203 212 211 214 227 243 246 249 251 250 253 259 264 256 244 248 249 254 260 268
256 254 257 252 246 236 229 225 221 218 213 201 203 207 211 208 212 219 227 228 226 230 217 200 205 214 208 208 236 238 257 266 266 260 255 257 252 255 246 250 246 248 253
252 252 250 245 242 235 237 224 220 220 222 213 207 218 225 227 220 220 222 232 221 216 218 214 211 193 211 213 216 240 241 255 259 264 259 254 251 250 256 253 251 244 242
254 252 248 244 236 236 232 227 219 219 223 227 222 220 225 233 235 232 234 229 231 214 215 212 218 213 216 228 214 217 242 247 261 259 260 253 251 248 249 251 253 246 238
250 245 239 239 232 231 226 221 220 213 220 223 228 233 229 234 235 235 235 239 231 219 214 210 209 215 211 214 226 238 241 245 250 249 251 251 250 248 247 246 246 245 226
244 237 237 236 235 228 227 223 224 222 229 227 224 227 228 232 232 232 233 236 232 226 219 213 207 200 203 196 185 249 276 261 236 246 247 245 246 240 242 237 234 237 241
235 235 236 235 229 231 228 224 220 226 228 217 222 226 226 232 232 230 235 236 236 219 215 208 209 208 206 199 202 186 186 222 199 180 226 264 255 252 255 253 250 240 237
248 238 245 242 225 226 222 223 214 216 215 219 224 219 226 235 237 237 237 234 224 219 221 202 205 214 210 206 196 221 261 12 182 288 105 322 258 252 245 239 248 236 238
253 245 239 232 220 218 213 214 215 217 232 232 224 234 233 232 236 235 230 223 221 218 226 215 201 203 214 213 210 187 220 231 221 215 275 266 232 234 246 241 239 234 236
248 243 234 225 216 212 212 209 217 210 214 224 218 235 232 230 235 236 226 230 224 217 221 213 203 203 201 210 199 213 183 169 202 189 226 259 272 274 222 234 245 255 249